EIN3CG EIDW-LSZH

Flight info

Callsign EIN3CG
Flight time 1h 56m
Altitude 37000
Route ENDEQ1E ENDEQ Q36 EPOXI L15 FINMA DCT CHT DCT ITVIP DCT KONAN UL607 KOK DCT CIV DCT SUTAL DCT GTQ DCT BAMEV DCT BLM
Aircraft A320/M-SDE3FGHIRWY/LB1

Departure

Time 2026-05-06 12:54
Airport Dublin Airport (EIDW)

Arrival

Time 2026-05-06 14:50
Airport Zürich Airport (LSZH)
Time Latitude Longitude Altitude Speed Heading
2026-05-06 11:45 53.42321 -6.24258 211 ft 0 kts 316°
2026-05-06 12:35 53.42306 -6.24233 219 ft 4 kts 316°
2026-05-06 12:35 53.42291 -6.24209 218 ft 4 kts 301°
2026-05-06 12:35 53.42289 -6.24174 215 ft 4 kts 238°
2026-05-06 12:35 53.42303 -6.24139 212 ft 4 kts 236°
2026-05-06 12:36 53.42318 -6.24102 213 ft 4 kts 233°
2026-05-06 12:36 53.42334 -6.24070 211 ft 1 kts 225°
2026-05-06 12:36 53.42334 -6.24069 211 ft 0 kts 225°
2026-05-06 12:42 53.42326 -6.24083 211 ft 8 kts 225°
2026-05-06 12:42 53.42253 -6.24133 213 ft 12 kts 197°
2026-05-06 12:42 53.42192 -6.24201 216 ft 10 kts 220°
2026-05-06 12:43 53.42156 -6.24282 211 ft 8 kts 259°
2026-05-06 12:43 53.42161 -6.24368 211 ft 7 kts 276°
2026-05-06 12:43 53.42165 -6.24438 215 ft 5 kts 276°
2026-05-06 12:43 53.42171 -6.24542 211 ft 16 kts 274°
2026-05-06 12:44 53.42181 -6.24741 211 ft 16 kts 275°
2026-05-06 12:44 53.42190 -6.24915 211 ft 14 kts 275°
2026-05-06 12:44 53.42199 -6.25074 211 ft 13 kts 275°
2026-05-06 12:44 53.42208 -6.25226 213 ft 13 kts 275°
2026-05-06 12:45 53.42215 -6.25360 214 ft 11 kts 275°
2026-05-06 12:45 53.42222 -6.25476 219 ft 9 kts 275°
2026-05-06 12:45 53.42239 -6.25802 214 ft 16 kts 275°
2026-05-06 12:46 53.42248 -6.25981 211 ft 14 kts 275°
2026-05-06 12:46 53.42257 -6.26139 211 ft 13 kts 276°
2026-05-06 12:46 53.42266 -6.26276 213 ft 11 kts 276°
2026-05-06 12:46 53.42273 -6.26401 213 ft 12 kts 275°
2026-05-06 12:47 53.42281 -6.26569 213 ft 17 kts 275°
2026-05-06 12:47 53.42293 -6.26793 211 ft 20 kts 275°
2026-05-06 12:47 53.42306 -6.27019 215 ft 18 kts 275°
2026-05-06 12:47 53.42317 -6.27220 211 ft 16 kts 275°
2026-05-06 12:48 53.42327 -6.27406 211 ft 18 kts 275°
2026-05-06 12:48 53.42343 -6.27708 211 ft 33 kts 275°
2026-05-06 12:48 53.42366 -6.28117 214 ft 36 kts 275°
2026-05-06 12:48 53.42389 -6.28528 211 ft 36 kts 276°
2026-05-06 12:49 53.42410 -6.28907 213 ft 17 kts 274°
2026-05-06 12:49 53.42405 -6.29021 218 ft 9 kts 239°
2026-05-06 12:49 53.42358 -6.29075 210 ft 8 kts 198°
2026-05-06 12:49 53.42343 -6.29079 210 ft 0 kts 188°
2026-05-06 12:52 53.42341 -6.29079 210 ft 2 kts 188°
2026-05-06 12:52 53.42268 -6.29069 209 ft 12 kts 172°
2026-05-06 12:52 53.42244 -6.29042 213 ft 3 kts 113°
2026-05-06 12:53 53.42244 -6.29021 209 ft 1 kts 94°
2026-05-06 12:53 53.42244 -6.29017 209 ft 0 kts 94°
2026-05-06 12:53 53.42242 -6.28988 209 ft 21 kts 96°
2026-05-06 12:53 53.42205 -6.28298 216 ft 94 kts 95°
2026-05-06 12:54 53.42129 -6.26895 219 ft 148 kts 94°
2026-05-06 12:54 53.42043 -6.25145 757 ft 151 kts 94°
2026-05-06 12:54 53.41955 -6.23378 1402 ft 153 kts 94°
2026-05-06 12:54 53.41856 -6.21533 1815 ft 168 kts 95°
2026-05-06 12:55 53.41737 -6.19441 2058 ft 192 kts 95°
2026-05-06 12:55 53.41600 -6.17091 2353 ft 212 kts 96°
2026-05-06 12:55 53.41448 -6.14491 2678 ft 237 kts 96°
2026-05-06 12:55 53.41282 -6.11631 3230 ft 254 kts 96°
2026-05-06 12:56 53.41113 -6.08650 4043 ft 259 kts 96°
2026-05-06 12:56 53.40947 -6.05662 4891 ft 263 kts 96°
2026-05-06 12:56 53.40933 -6.02572 5709 ft 268 kts 88°
2026-05-06 12:56 53.41105 -5.99426 6513 ft 273 kts 84°
2026-05-06 12:57 53.41349 -5.96235 7269 ft 278 kts 83°
2026-05-06 12:57 53.41614 -5.92990 8012 ft 283 kts 82°
2026-05-06 12:57 53.41876 -5.89686 8738 ft 290 kts 82°
2026-05-06 12:57 53.42128 -5.86312 8987 ft 292 kts 83°
2026-05-06 12:58 53.42371 -5.82927 9032 ft 292 kts 83°
2026-05-06 12:58 53.42601 -5.79586 9054 ft 293 kts 83°
2026-05-06 12:58 53.42831 -5.76164 9753 ft 296 kts 83°
2026-05-06 12:58 53.43064 -5.72697 10378 ft 307 kts 83°
2026-05-06 12:59 53.43313 -5.69010 10579 ft 330 kts 83°
2026-05-06 12:59 53.43578 -5.65083 10914 ft 346 kts 83°
2026-05-06 12:59 53.43847 -5.61037 11543 ft 352 kts 83°
2026-05-06 12:59 53.44115 -5.56938 12227 ft 356 kts 83°
2026-05-06 13:00 53.44388 -5.52786 12904 ft 360 kts 83°
2026-05-06 13:00 53.44541 -5.48571 13577 ft 364 kts 91°
2026-05-06 13:00 53.44436 -5.44378 14260 ft 366 kts 92°
2026-05-06 13:00 53.44331 -5.40095 14882 ft 369 kts 92°
2026-05-06 13:01 53.44224 -5.35777 15503 ft 372 kts 92°
2026-05-06 13:01 53.44113 -5.31436 16104 ft 375 kts 92°
2026-05-06 13:01 53.43998 -5.27045 16702 ft 378 kts 92°
2026-05-06 13:01 53.43883 -5.22626 17296 ft 381 kts 92°
2026-05-06 13:02 53.43766 -5.18172 17893 ft 384 kts 92°
2026-05-06 13:02 53.43643 -5.13679 18449 ft 387 kts 92°
2026-05-06 13:02 53.43510 -5.09154 18947 ft 391 kts 92°
2026-05-06 13:02 53.43371 -5.04645 19440 ft 394 kts 93°
2026-05-06 13:03 53.43224 -5.00044 19947 ft 397 kts 93°
2026-05-06 13:03 53.43070 -4.95408 20454 ft 400 kts 93°
2026-05-06 13:03 53.42912 -4.90739 20957 ft 403 kts 93°
2026-05-06 13:03 53.42754 -4.86033 21456 ft 406 kts 93°
2026-05-06 13:04 53.42594 -4.81288 21950 ft 409 kts 93°
2026-05-06 13:04 53.42437 -4.76511 22437 ft 412 kts 93°
2026-05-06 13:04 53.42282 -4.71688 22905 ft 416 kts 93°
2026-05-06 13:04 53.42123 -4.66845 23021 ft 417 kts 93°
2026-05-06 13:05 53.41960 -4.62060 23039 ft 417 kts 93°
2026-05-06 13:05 53.41787 -4.57208 23035 ft 417 kts 93°
2026-05-06 13:05 53.41612 -4.52364 23034 ft 417 kts 93°
2026-05-06 13:05 53.41437 -4.47513 23034 ft 416 kts 93°
2026-05-06 13:06 53.41263 -4.42678 23035 ft 417 kts 93°
2026-05-06 13:06 53.41088 -4.37830 23035 ft 416 kts 93°
2026-05-06 13:06 53.40910 -4.32984 23037 ft 416 kts 93°
2026-05-06 13:06 53.40730 -4.28144 23040 ft 416 kts 93°
2026-05-06 13:07 53.40548 -4.23298 23040 ft 416 kts 93°
2026-05-06 13:07 53.40365 -4.18525 23042 ft 416 kts 93°
2026-05-06 13:07 53.40176 -4.13654 23043 ft 416 kts 93°
2026-05-06 13:07 53.39986 -4.08817 23050 ft 416 kts 94°
2026-05-06 13:08 53.39792 -4.03979 23052 ft 416 kts 94°
2026-05-06 13:08 53.39597 -3.99146 23054 ft 416 kts 94°
2026-05-06 13:08 53.39402 -3.94313 23054 ft 416 kts 94°
2026-05-06 13:08 53.39209 -3.89546 23057 ft 416 kts 94°
2026-05-06 13:09 53.39013 -3.84716 23057 ft 416 kts 94°
2026-05-06 13:09 53.38815 -3.79882 23051 ft 416 kts 94°
2026-05-06 13:09 53.38613 -3.75049 23051 ft 416 kts 94°
2026-05-06 13:09 53.38409 -3.70221 23054 ft 416 kts 94°
2026-05-06 13:10 53.38040 -3.65440 23051 ft 416 kts 102°
2026-05-06 13:10 53.37219 -3.60804 23054 ft 415 kts 112°
2026-05-06 13:10 53.36077 -3.56341 23055 ft 415 kts 114°
2026-05-06 13:10 53.34947 -3.51967 23054 ft 415 kts 114°
2026-05-06 13:11 53.33752 -3.47580 23053 ft 414 kts 119°
2026-05-06 13:11 53.32206 -3.43531 23055 ft 413 kts 129°
2026-05-06 13:11 53.30345 -3.39887 23056 ft 412 kts 133°
2026-05-06 13:11 53.28447 -3.36293 23053 ft 412 kts 133°
2026-05-06 13:12 53.26554 -3.32701 23053 ft 412 kts 133°
2026-05-06 13:12 53.24658 -3.29111 23054 ft 412 kts 133°
2026-05-06 13:12 53.22759 -3.25523 23054 ft 412 kts 133°
2026-05-06 13:12 53.20854 -3.21932 23317 ft 415 kts 133°
2026-05-06 13:13 53.18962 -3.18365 23821 ft 417 kts 133°
2026-05-06 13:13 53.17037 -3.14742 24228 ft 419 kts 133°
2026-05-06 13:13 53.15100 -3.11100 24621 ft 421 kts 133°
2026-05-06 13:13 53.13154 -3.07448 25006 ft 423 kts 133°
2026-05-06 13:14 53.11193 -3.03777 25389 ft 425 kts 133°
2026-05-06 13:14 53.09219 -3.00091 25767 ft 427 kts 134°
2026-05-06 13:14 53.07238 -2.96400 26132 ft 429 kts 134°
2026-05-06 13:14 53.05248 -2.92693 26485 ft 431 kts 134°
2026-05-06 13:15 53.03247 -2.88966 26840 ft 433 kts 134°
2026-05-06 13:15 53.01236 -2.85221 27186 ft 435 kts 134°
2026-05-06 13:15 52.99240 -2.81514 27529 ft 437 kts 134°
2026-05-06 13:15 52.97210 -2.77754 27827 ft 439 kts 134°
2026-05-06 13:16 52.95166 -2.73971 28169 ft 441 kts 134°
2026-05-06 13:16 52.93116 -2.70179 28499 ft 443 kts 134°
2026-05-06 13:16 52.91056 -2.66381 28827 ft 445 kts 134°
2026-05-06 13:16 52.88979 -2.62567 29141 ft 446 kts 134°
2026-05-06 13:17 52.86894 -2.58746 29444 ft 448 kts 134°
2026-05-06 13:17 52.84800 -2.54912 29733 ft 450 kts 135°
2026-05-06 13:17 52.82696 -2.51060 30024 ft 452 kts 135°
2026-05-06 13:17 52.80610 -2.47247 30270 ft 454 kts 135°
2026-05-06 13:18 52.78490 -2.43378 30492 ft 455 kts 135°
2026-05-06 13:18 52.76363 -2.39497 30716 ft 457 kts 135°
2026-05-06 13:18 52.74224 -2.35595 30928 ft 459 kts 135°
2026-05-06 13:18 52.72086 -2.31691 31182 ft 459 kts 135°
2026-05-06 13:19 52.69943 -2.27788 31512 ft 458 kts 135°
2026-05-06 13:19 52.67808 -2.23902 31823 ft 457 kts 135°
2026-05-06 13:19 52.65670 -2.20028 32120 ft 457 kts 135°
2026-05-06 13:19 52.63556 -2.16217 32416 ft 456 kts 135°
2026-05-06 13:20 52.61418 -2.12368 32700 ft 456 kts 135°
2026-05-06 13:20 52.59280 -2.08519 32993 ft 455 kts 135°
2026-05-06 13:20 52.57146 -2.04676 33280 ft 455 kts 135°
2026-05-06 13:20 52.55014 -2.00839 33557 ft 455 kts 135°
2026-05-06 13:21 52.52884 -1.97016 33852 ft 453 kts 135°
2026-05-06 13:21 52.50752 -1.93195 34135 ft 452 kts 135°
2026-05-06 13:21 52.48629 -1.89406 34387 ft 451 kts 135°
2026-05-06 13:21 52.46499 -1.85613 34608 ft 451 kts 135°
2026-05-06 13:22 52.44405 -1.81888 34816 ft 451 kts 135°
2026-05-06 13:22 52.42279 -1.78106 35021 ft 451 kts 135°
2026-05-06 13:22 52.40152 -1.74323 35218 ft 451 kts 135°
2026-05-06 13:22 52.38023 -1.70545 35408 ft 451 kts 135°
2026-05-06 13:23 52.35889 -1.66771 35598 ft 451 kts 135°
2026-05-06 13:23 52.33746 -1.63016 35782 ft 451 kts 136°
2026-05-06 13:23 52.31585 -1.59296 35957 ft 451 kts 136°
2026-05-06 13:23 52.29411 -1.55595 36131 ft 451 kts 136°
2026-05-06 13:24 52.27262 -1.51956 36286 ft 451 kts 136°
2026-05-06 13:24 52.25082 -1.48270 36470 ft 451 kts 136°
2026-05-06 13:24 52.22905 -1.44586 36655 ft 450 kts 136°
2026-05-06 13:24 52.20735 -1.40910 36822 ft 450 kts 136°
2026-05-06 13:25 52.18570 -1.37236 36987 ft 450 kts 136°
2026-05-06 13:25 52.14236 -1.29886 37027 ft 449 kts 136°
2026-05-06 13:26 52.09930 -1.22613 37023 ft 449 kts 136°
2026-05-06 13:26 52.05586 -1.15316 37023 ft 449 kts 136°
2026-05-06 13:27 52.01244 -1.08043 37001 ft 449 kts 136°
2026-05-06 13:27 51.96799 -1.00939 37000 ft 448 kts 140°
2026-05-06 13:28 51.92132 -0.94261 36999 ft 447 kts 141°
2026-05-06 13:28 51.87440 -0.87734 37003 ft 448 kts 141°
2026-05-06 13:29 51.82757 -0.81087 37006 ft 448 kts 140°
2026-05-06 13:29 51.78101 -0.74388 37001 ft 448 kts 140°
2026-05-06 13:30 51.73445 -0.67696 37005 ft 448 kts 140°
2026-05-06 13:30 51.68809 -0.61073 37010 ft 448 kts 140°
2026-05-06 13:31 51.64260 -0.54194 37017 ft 450 kts 131°
2026-05-06 13:31 51.61046 -0.45569 37016 ft 453 kts 111°
2026-05-06 13:32 51.59046 -0.35946 37011 ft 454 kts 109°
2026-05-06 13:32 51.57070 -0.26431 37004 ft 454 kts 109°
2026-05-06 13:33 51.55068 -0.16874 37009 ft 455 kts 110°
2026-05-06 13:33 51.53050 -0.07249 37038 ft 455 kts 109°
2026-05-06 13:34 51.51110 0.01973 37015 ft 455 kts 110°
2026-05-06 13:34 51.49075 0.11586 37016 ft 455 kts 110°
2026-05-06 13:35 51.47035 0.21175 37017 ft 455 kts 110°
2026-05-06 13:35 51.45083 0.30283 37013 ft 455 kts 110°
2026-05-06 13:36 51.43025 0.39864 37005 ft 454 kts 110°
2026-05-06 13:36 51.40964 0.49438 36992 ft 454 kts 110°
2026-05-06 13:37 51.38898 0.59003 36986 ft 454 kts 110°
2026-05-06 13:37 51.36832 0.68475 36991 ft 454 kts 110°
2026-05-06 13:38 51.34749 0.77995 36988 ft 453 kts 110°
2026-05-06 13:38 51.32663 0.87510 36989 ft 453 kts 110°
2026-05-06 13:39 51.30567 0.96998 36976 ft 453 kts 111°
2026-05-06 13:39 51.28539 1.06448 36978 ft 453 kts 105°
2026-05-06 13:40 51.26968 1.16187 36975 ft 453 kts 105°
2026-05-06 13:40 51.25397 1.25910 36970 ft 453 kts 105°
2026-05-06 13:41 51.23815 1.35636 36971 ft 452 kts 105°
2026-05-06 13:41 51.22236 1.45290 36971 ft 452 kts 106°
2026-05-06 13:42 51.20630 1.54987 36969 ft 452 kts 106°
2026-05-06 13:42 51.19015 1.64674 36976 ft 452 kts 106°
2026-05-06 13:43 51.17399 1.74356 36969 ft 452 kts 106°
2026-05-06 13:43 51.15777 1.84032 36970 ft 452 kts 106°
2026-05-06 13:44 51.14157 1.93633 36977 ft 452 kts 106°
2026-05-06 13:44 51.12899 2.03418 36980 ft 453 kts 96°
2026-05-06 13:45 51.12384 2.13406 36978 ft 453 kts 96°
2026-05-06 13:45 51.11561 2.28380 36963 ft 453 kts 96°
2026-05-06 13:46 51.11010 2.38294 36961 ft 453 kts 96°
2026-05-06 13:46 51.10445 2.48272 36963 ft 453 kts 96°
2026-05-06 13:47 51.09861 2.58242 36961 ft 452 kts 99°
2026-05-06 13:47 51.08091 2.67727 36955 ft 447 kts 118°
2026-05-06 13:48 51.04792 2.75950 36950 ft 444 kts 126°
2026-05-06 13:48 51.01296 2.84033 36946 ft 444 kts 126°
2026-05-06 13:49 50.97798 2.92108 36947 ft 444 kts 126°
2026-05-06 13:49 50.94290 3.00165 36946 ft 444 kts 126°
2026-05-06 13:50 50.90766 3.08213 36939 ft 444 kts 126°
2026-05-06 13:50 50.87265 3.16179 36935 ft 444 kts 127°
2026-05-06 13:51 50.83735 3.24193 36926 ft 444 kts 127°
2026-05-06 13:51 50.80204 3.32189 36915 ft 443 kts 127°
2026-05-06 13:52 50.76667 3.40169 36912 ft 443 kts 127°
2026-05-06 13:52 50.73150 3.48087 36912 ft 443 kts 127°
2026-05-06 13:53 50.69609 3.56040 36906 ft 443 kts 127°
2026-05-06 13:53 50.66062 3.63987 36905 ft 443 kts 127°
2026-05-06 13:54 50.62514 3.71918 36905 ft 443 kts 127°
2026-05-06 13:54 50.58977 3.79780 36894 ft 443 kts 127°
2026-05-06 13:55 50.55449 3.87715 36895 ft 443 kts 126°
2026-05-06 13:55 50.52102 3.95842 36898 ft 443 kts 124°
2026-05-06 13:56 50.48798 4.04021 36900 ft 443 kts 124°
2026-05-06 13:56 50.45455 4.12152 36897 ft 443 kts 125°
2026-05-06 13:57 50.42094 4.20169 36899 ft 443 kts 125°
2026-05-06 13:57 50.38701 4.28232 36899 ft 443 kts 125°
2026-05-06 13:58 50.35313 4.36300 36902 ft 443 kts 125°
2026-05-06 13:58 50.31920 4.44368 36901 ft 443 kts 125°
2026-05-06 13:59 50.28547 4.52363 36902 ft 443 kts 125°
2026-05-06 13:59 50.25142 4.60400 36890 ft 443 kts 126°
2026-05-06 14:00 50.21741 4.68410 36899 ft 442 kts 126°
2026-05-06 14:00 50.18335 4.76404 36900 ft 442 kts 126°
2026-05-06 14:01 50.14930 4.84371 36899 ft 441 kts 126°
2026-05-06 14:01 50.11538 4.92269 36893 ft 441 kts 126°
2026-05-06 14:02 50.08119 5.00207 36876 ft 441 kts 126°
2026-05-06 14:02 50.04701 5.08139 36860 ft 442 kts 126°
2026-05-06 14:03 50.01273 5.16071 36855 ft 442 kts 126°
2026-05-06 14:03 49.97847 5.23953 36858 ft 443 kts 126°
2026-05-06 14:04 49.94394 5.31881 36857 ft 443 kts 126°
2026-05-06 14:04 49.90935 5.39810 36859 ft 444 kts 126°
2026-05-06 14:05 49.88055 5.46394 36844 ft 443 kts 127°
2026-05-06 14:05 49.84594 5.54285 36858 ft 442 kts 127°
2026-05-06 14:06 49.80564 5.63420 36848 ft 441 kts 127°
2026-05-06 14:06 49.77689 5.69930 36849 ft 441 kts 127°
2026-05-06 14:07 49.74235 5.77751 36849 ft 440 kts 127°
2026-05-06 14:07 49.70766 5.85548 36843 ft 440 kts 127°
2026-05-06 14:08 49.66723 5.94587 36840 ft 440 kts 127°
2026-05-06 14:08 49.63814 6.01104 36842 ft 440 kts 127°
2026-05-06 14:09 49.60364 6.08827 36850 ft 440 kts 127°
2026-05-06 14:09 49.56879 6.16596 36848 ft 440 kts 128°
2026-05-06 14:10 49.53389 6.24337 36850 ft 440 kts 128°
2026-05-06 14:10 49.49883 6.32060 36840 ft 440 kts 128°
2026-05-06 14:11 49.45824 6.38842 36843 ft 432 kts 146°
2026-05-06 14:11 49.40637 6.43277 36838 ft 426 kts 159°
2026-05-06 14:12 49.35219 6.46957 36832 ft 426 kts 159°
2026-05-06 14:12 49.29797 6.50637 36828 ft 426 kts 158°
2026-05-06 14:13 49.24374 6.54322 36839 ft 426 kts 158°
2026-05-06 14:13 49.18984 6.57964 36835 ft 426 kts 159°
2026-05-06 14:14 49.13557 6.61616 36836 ft 426 kts 159°
2026-05-06 14:14 49.08118 6.65265 36818 ft 427 kts 159°
2026-05-06 14:15 49.02688 6.68906 36824 ft 427 kts 159°
2026-05-06 14:15 48.97279 6.72500 36819 ft 427 kts 160°
2026-05-06 14:16 48.91774 6.75838 36821 ft 426 kts 161°
2026-05-06 14:16 48.86227 6.79031 36830 ft 426 kts 162°
2026-05-06 14:17 48.80683 6.82248 36832 ft 427 kts 161°
2026-05-06 14:17 48.75183 6.85490 36822 ft 427 kts 161°
2026-05-06 14:18 48.69648 6.88772 36827 ft 428 kts 161°
2026-05-06 14:18 48.64031 6.92073 36466 ft 440 kts 161°
2026-05-06 14:19 48.61158 6.93755 36219 ft 444 kts 161°
2026-05-06 14:19 48.58273 6.95442 35945 ft 445 kts 161°
2026-05-06 14:19 48.55385 6.97132 35701 ft 445 kts 161°
2026-05-06 14:19 48.52526 6.98808 35451 ft 435 kts 161°
2026-05-06 14:20 48.49773 7.00421 35204 ft 425 kts 161°
2026-05-06 14:20 48.47043 7.02014 34972 ft 418 kts 161°
2026-05-06 14:20 48.44340 7.03587 34739 ft 414 kts 161°
2026-05-06 14:20 48.41657 7.05146 34501 ft 412 kts 162°
2026-05-06 14:21 48.39004 7.06687 34224 ft 407 kts 162°
2026-05-06 14:21 48.36369 7.08222 33744 ft 404 kts 161°
2026-05-06 14:21 48.33759 7.09737 33222 ft 400 kts 161°
2026-05-06 14:21 48.31176 7.11231 32745 ft 396 kts 161°
2026-05-06 14:22 48.28652 7.12687 32278 ft 391 kts 161°
2026-05-06 14:22 48.26123 7.14145 31819 ft 387 kts 161°
2026-05-06 14:22 48.23625 7.15581 31365 ft 383 kts 161°
2026-05-06 14:22 48.21148 7.17002 30913 ft 379 kts 160°
2026-05-06 14:23 48.18704 7.18402 30476 ft 375 kts 160°
2026-05-06 14:23 48.16281 7.19789 30051 ft 371 kts 159°
2026-05-06 14:23 48.13882 7.21165 29573 ft 367 kts 159°
2026-05-06 14:23 48.11513 7.22526 29161 ft 362 kts 159°
2026-05-06 14:24 48.09214 7.23848 28763 ft 357 kts 159°
2026-05-06 14:24 48.06915 7.25172 28365 ft 352 kts 160°
2026-05-06 14:24 48.04640 7.26480 27989 ft 347 kts 160°
2026-05-06 14:24 48.02398 7.27762 27609 ft 344 kts 160°
2026-05-06 14:25 48.00171 7.29035 27222 ft 340 kts 160°
2026-05-06 14:25 47.97973 7.30291 26852 ft 336 kts 160°
2026-05-06 14:25 47.95804 7.31530 26467 ft 332 kts 160°
2026-05-06 14:25 47.93659 7.32753 26089 ft 329 kts 160°
2026-05-06 14:26 47.91534 7.33963 25715 ft 326 kts 160°
2026-05-06 14:26 47.89451 7.35147 25331 ft 324 kts 160°
2026-05-06 14:26 47.87348 7.36340 24943 ft 322 kts 160°
2026-05-06 14:26 47.85273 7.37549 24584 ft 318 kts 155°
2026-05-06 14:27 47.83474 7.39374 24519 ft 316 kts 136°
2026-05-06 14:27 47.82512 7.41079 24476 ft 319 kts 128°
2026-05-06 14:27 47.81640 7.42877 24430 ft 321 kts 128°
2026-05-06 14:27 47.80327 7.45589 24369 ft 325 kts 128°
2026-05-06 14:28 47.79015 7.48304 24303 ft 322 kts 128°
2026-05-06 14:28 47.77711 7.51000 24242 ft 321 kts 128°
2026-05-06 14:28 47.76427 7.53653 24193 ft 320 kts 128°
2026-05-06 14:28 47.75130 7.56335 24127 ft 319 kts 128°
2026-05-06 14:29 47.73834 7.59003 24041 ft 318 kts 128°
2026-05-06 14:29 47.72536 7.61666 23977 ft 318 kts 129°
2026-05-06 14:29 47.71215 7.64289 23917 ft 317 kts 130°
2026-05-06 14:29 47.69870 7.66890 23846 ft 317 kts 130°
2026-05-06 14:30 47.68521 7.69469 23778 ft 316 kts 130°
2026-05-06 14:30 47.67170 7.72047 23711 ft 316 kts 130°
2026-05-06 14:30 47.65842 7.74587 23646 ft 316 kts 130°
2026-05-06 14:30 47.64502 7.77161 23580 ft 315 kts 130°
2026-05-06 14:31 47.63164 7.79738 23516 ft 315 kts 130°
2026-05-06 14:31 47.61831 7.82314 23448 ft 315 kts 129°
2026-05-06 14:31 47.60502 7.84883 23372 ft 314 kts 129°
2026-05-06 14:31 47.59171 7.87451 23293 ft 314 kts 129°
2026-05-06 14:32 47.57842 7.90018 23209 ft 314 kts 129°
2026-05-06 14:32 47.56518 7.92576 23140 ft 313 kts 129°
2026-05-06 14:32 47.55188 7.95138 23054 ft 313 kts 130°
2026-05-06 14:32 47.53859 7.97688 22973 ft 313 kts 130°
2026-05-06 14:33 47.52530 8.00238 22869 ft 317 kts 130°
2026-05-06 14:33 47.51149 8.02878 22199 ft 334 kts 130°
2026-05-06 14:33 47.49901 8.05310 21606 ft 338 kts 128°
2026-05-06 14:33 47.48496 8.08247 20933 ft 343 kts 127°
2026-05-06 14:34 47.47151 8.11193 20288 ft 347 kts 126°
2026-05-06 14:34 47.45810 8.14178 19661 ft 351 kts 126°
2026-05-06 14:34 47.44450 8.17200 19045 ft 354 kts 127°
2026-05-06 14:34 47.43087 8.20203 18445 ft 355 kts 127°
2026-05-06 14:35 47.41723 8.23187 17796 ft 346 kts 127°
2026-05-06 14:35 47.40389 8.26086 17122 ft 337 kts 128°
2026-05-06 14:35 47.39081 8.28911 16465 ft 330 kts 128°
2026-05-06 14:35 47.37813 8.31640 15833 ft 324 kts 128°
2026-05-06 14:36 47.36552 8.34373 15187 ft 321 kts 125°
2026-05-06 14:36 47.35581 8.37334 14562 ft 322 kts 112°
2026-05-06 14:36 47.35092 8.40556 13954 ft 323 kts 99°
2026-05-06 14:36 47.34870 8.43845 13330 ft 322 kts 99°
2026-05-06 14:37 47.34642 8.47118 12675 ft 320 kts 99°
2026-05-06 14:37 47.34411 8.50372 12022 ft 318 kts 99°
2026-05-06 14:37 47.34181 8.53604 11383 ft 316 kts 99°
2026-05-06 14:37 47.33954 8.56773 10772 ft 314 kts 99°
2026-05-06 14:38 47.33723 8.59966 10155 ft 312 kts 99°
2026-05-06 14:38 47.33496 8.63134 9526 ft 310 kts 99°
2026-05-06 14:38 47.33270 8.66268 8859 ft 305 kts 99°
2026-05-06 14:38 47.33047 8.69357 8206 ft 302 kts 98°
2026-05-06 14:39 47.32826 8.72422 7568 ft 299 kts 98°
2026-05-06 14:39 47.32607 8.75456 7036 ft 295 kts 98°
2026-05-06 14:39 47.32389 8.78461 6938 ft 295 kts 98°
2026-05-06 14:39 47.32166 8.81477 6996 ft 297 kts 98°
2026-05-06 14:40 47.31939 8.84510 7000 ft 298 kts 98°
2026-05-06 14:40 47.31716 8.87495 6995 ft 297 kts 98°
2026-05-06 14:40 47.31490 8.90516 6992 ft 297 kts 98°
2026-05-06 14:40 47.31267 8.93546 6994 ft 297 kts 98°
2026-05-06 14:41 47.31061 8.96512 6989 ft 283 kts 94°
2026-05-06 14:41 47.31335 8.99282 6983 ft 267 kts 67°
2026-05-06 14:41 47.32279 9.01501 6980 ft 247 kts 42°
2026-05-06 14:41 47.33607 9.02901 6973 ft 228 kts 19°
2026-05-06 14:42 47.35107 9.03479 6985 ft 221 kts
2026-05-06 14:42 47.36618 9.03719 6981 ft 221 kts
2026-05-06 14:42 47.38145 9.03943 6982 ft 220 kts 355°
2026-05-06 14:42 47.39623 9.03647 6981 ft 211 kts 335°
2026-05-06 14:43 47.40905 9.02688 6983 ft 204 kts 317°
2026-05-06 14:43 47.41880 9.01224 6984 ft 198 kts 299°
2026-05-06 14:43 47.42481 8.99431 6992 ft 194 kts 283°
2026-05-06 14:43 47.42700 8.97486 6991 ft 192 kts 274°
2026-05-06 14:44 47.42845 8.95539 6967 ft 195 kts 274°
2026-05-06 14:44 47.42994 8.93551 6771 ft 194 kts 274°
2026-05-06 14:44 47.43142 8.91570 6530 ft 195 kts 273°
2026-05-06 14:45 47.43434 8.87642 5968 ft 190 kts 274°
2026-05-06 14:45 47.43577 8.85713 5678 ft 188 kts 274°
2026-05-06 14:45 47.43718 8.83805 5401 ft 186 kts 274°
2026-05-06 14:45 47.43856 8.81928 5127 ft 181 kts 274°
2026-05-06 14:46 47.43989 8.80128 4869 ft 171 kts 274°
2026-05-06 14:46 47.44112 8.78453 4623 ft 161 kts 274°
2026-05-06 14:46 47.44228 8.76866 4400 ft 152 kts 274°
2026-05-06 14:46 47.44339 8.75360 4176 ft 145 kts 273°
2026-05-06 14:47 47.44445 8.73901 3968 ft 141 kts 272°
2026-05-06 14:47 47.44548 8.72475 3766 ft 138 kts 272°
2026-05-06 14:47 47.44651 8.71057 3561 ft 139 kts 273°
2026-05-06 14:47 47.44753 8.69661 3347 ft 137 kts 273°
2026-05-06 14:48 47.44854 8.68264 3159 ft 137 kts 273°
2026-05-06 14:48 47.44954 8.66874 2950 ft 136 kts 273°
2026-05-06 14:48 47.45054 8.65488 2747 ft 135 kts 273°
2026-05-06 14:48 47.45151 8.64113 2573 ft 135 kts 273°
2026-05-06 14:49 47.45245 8.62724 2270 ft 136 kts 274°
2026-05-06 14:49 47.45342 8.61330 2134 ft 135 kts 274°
2026-05-06 14:49 47.45445 8.59936 1910 ft 137 kts 277°
2026-05-06 14:49 47.45550 8.58540 1677 ft 137 kts 275°
2026-05-06 14:50 47.45656 8.57138 1478 ft 137 kts 273°
2026-05-06 14:50 47.45747 8.55806 1412 ft 116 kts 275°
2026-05-06 14:50 47.45801 8.55059 1393 ft 30 kts 276°
2026-05-06 14:50 47.45819 8.54855 1387 ft 21 kts 288°
2026-05-06 14:51 47.45916 8.54791 1389 ft 14 kts 50°
2026-05-06 14:51 47.45919 8.54912 1394 ft 10 kts 97°
2026-05-06 14:51 47.45912 8.54991 1393 ft 6 kts 97°
2026-05-06 14:51 47.45908 8.55029 1394 ft 2 kts 97°
2026-05-06 14:52 47.45907 8.55037 1394 ft 3 kts 97°
2026-05-06 14:52 47.45920 8.55115 1397 ft 8 kts 48°
2026-05-06 14:52 47.45967 8.55123 1401 ft 7 kts 335°
2026-05-06 14:52 47.46015 8.55091 1393 ft 8 kts 335°
2026-05-06 14:53 47.46064 8.55057 1394 ft 7 kts 335°
2026-05-06 14:53 47.46106 8.55027 1400 ft 6 kts 334°
2026-05-06 14:53 47.46144 8.55000 1388 ft 6 kts 334°
2026-05-06 14:53 47.46178 8.54977 1386 ft 5 kts 335°
2026-05-06 14:54 47.46209 8.54956 1386 ft 4 kts 335°
2026-05-06 14:54 47.46235 8.54944 1389 ft 3 kts 353°
2026-05-06 14:54 47.46285 8.54995 1389 ft 12 kts 68°
2026-05-06 14:54 47.46284 8.55099 1394 ft 9 kts 96°
2026-05-06 14:55 47.46279 8.55167 1397 ft 5 kts 96°
2026-05-06 14:55 47.46274 8.55241 1394 ft 12 kts 96°
2026-05-06 14:55 47.46263 8.55404 1396 ft 19 kts 96°
2026-05-06 14:55 47.46251 8.55580 1406 ft 15 kts 96°
2026-05-06 14:56 47.46242 8.55707 1401 ft 11 kts 95°
2026-05-06 14:56 47.46232 8.55780 1407 ft 4 kts 130°
2026-05-06 14:56 47.46216 8.55788 1406 ft 2 kts 173°
2026-05-06 14:56 47.46194 8.55785 1403 ft 6 kts 186°
2026-05-06 14:57 47.46159 8.55780 1406 ft 5 kts 186°
2026-05-06 14:57 47.46142 8.55777 1406 ft 0 kts 186°